TimeEST,TemperatureF,Dew PointF,Humidity,Sea Level PressureIn,VisibilityMPH,Wind Direction,Wind SpeedMPH,Gust SpeedMPH,PrecipitationIn,Events,Conditions,WindDirDegrees,DateUTC
12:15 AM,12.2,3.2,67,29.79,-9999.0,West,27.6,40.3,N/A,,Mostly Cloudy,280,2013-01-22 05:15:00
12:35 AM,12.2,3.2,67,29.79,-9999.0,West,21.9,41.4,N/A,,Overcast,280,2013-01-22 05:35:00
12:55 AM,12.2,1.4,62,29.79,-9999.0,West,25.3,35.7,N/A,Snow,Light Snow,280,2013-01-22 05:55:00
1:15 AM,10.4,1.4,67,29.79,-9999.0,West,24.2,40.3,N/A,,Mostly Cloudy,280,2013-01-22 06:15:00
1:35 AM,10.4,1.4,67,29.80,-9999.0,West,24.2,33.4,N/A,,Mostly Cloudy,270,2013-01-22 06:35:00
1:55 AM,10.4,-0.4,62,29.81,-9999.0,West,19.6,34.5,N/A,,Mostly Cloudy,280,2013-01-22 06:55:00
2:15 AM,8.6,-0.4,67,29.81,-9999.0,West,16.1,26.5,N/A,,Mostly Cloudy,270,2013-01-22 07:15:00
2:55 AM,8.6,-0.4,67,29.82,-9999.0,West,21.9,32.2,N/A,,Mostly Cloudy,280,2013-01-22 07:55:00
3:15 AM,6.8,-0.4,72,29.82,10.0,WNW,18.4,36.8,N/A,,Scattered Clouds,290,2013-01-22 08:15:00
3:35 AM,6.8,-0.4,72,29.83,10.0,West,17.3,28.8,N/A,,Scattered Clouds,280,2013-01-22 08:35:00
3:55 AM,6.8,-0.4,72,29.83,10.0,West,16.1,24.2,N/A,,Mostly Cloudy,280,2013-01-22 08:55:00
4:15 AM,6.8,-2.2,67,29.82,10.0,West,17.3,25.3,N/A,,Overcast,280,2013-01-22 09:15:00
4:35 AM,5.0,-2.2,72,29.83,10.0,WNW,18.4,28.8,N/A,,Mostly Cloudy,290,2013-01-22 09:35:00
4:55 AM,5.0,-2.2,72,29.83,10.0,West,20.7,31.1,N/A,,Scattered Clouds,270,2013-01-22 09:55:00
5:15 AM,5.0,-4.0,66,29.84,10.0,WNW,18.4,32.2,N/A,,Scattered Clouds,290,2013-01-22 10:15:00
5:35 AM,3.2,-2.2,78,29.85,10.0,WNW,16.1,25.3,N/A,,Mostly Cloudy,300,2013-01-22 10:35:00
5:55 AM,3.2,-2.2,78,29.86,10.0,WNW,16.1,26.5,N/A,,Scattered Clouds,290,2013-01-22 10:55:00
6:15 AM,3.2,-2.2,78,29.86,10.0,WNW,15.0,24.2,N/A,,Mostly Cloudy,300,2013-01-22 11:15:00
6:35 AM,3.2,-4.0,72,29.87,10.0,WNW,20.7,31.1,N/A,,Scattered Clouds,290,2013-01-22 11:35:00
6:55 AM,1.4,-5.8,72,29.87,10.0,WNW,19.6,33.4,N/A,,Scattered Clouds,290,2013-01-22 11:55:00
7:15 AM,1.4,-7.6,66,29.88,-9999.0,WNW,19.6,34.5,N/A,,Scattered Clouds,290,2013-01-22 12:15:00
7:35 AM,1.4,-7.6,66,29.88,-9999.0,West,23.0,33.4,N/A,,Clear,280,2013-01-22 12:35:00
7:55 AM,1.4,-7.6,66,29.89,-9999.0,WNW,20.7,28.8,N/A,,Clear,290,2013-01-22 12:55:00
8:15 AM,1.4,-7.6,66,29.90,-9999.0,WNW,18.4,31.1,N/A,Snow,Light Snow,290,2013-01-22 13:15:00
8:35 AM,1.4,-7.6,66,29.90,-9999.0,WNW,20.7,32.2,N/A,,Clear,290,2013-01-22 13:35:00
8:55 AM,1.4,-7.6,66,29.91,-9999.0,WNW,21.9,34.5,N/A,,Clear,290,2013-01-22 13:55:00
9:15 AM,1.4,-7.6,66,29.92,-9999.0,West,18.4,28.8,N/A,,Clear,280,2013-01-22 14:15:00
9:35 AM,3.2,-7.6,61,29.94,-9999.0,West,19.6,27.6,N/A,,Clear,280,2013-01-22 14:35:00
9:55 AM,3.2,-7.6,61,29.95,-9999.0,West,18.4,27.6,N/A,,Clear,280,2013-01-22 14:55:00
10:15 AM,5.0,-7.6,56,29.95,10.0,West,18.4,28.8,N/A,,Clear,270,2013-01-22 15:15:00
10:35 AM,5.0,-7.6,56,29.96,-9999.0,WNW,20.7,26.5,N/A,,Clear,290,2013-01-22 15:35:00
10:55 AM,6.8,-9.4,48,29.97,-9999.0,WNW,15.0,25.3,N/A,,Clear,290,2013-01-22 15:55:00
11:15 AM,6.8,-9.4,48,29.97,-9999.0,West,20.7,27.6,N/A,,Clear,280,2013-01-22 16:15:00
11:35 AM,6.8,-9.4,48,29.96,10.0,WNW,17.3,24.2,N/A,,Clear,290,2013-01-22 16:35:00
11:55 AM,6.8,-9.4,48,29.96,-9999.0,West,21.9,27.6,N/A,,Clear,270,2013-01-22 16:55:00
12:15 PM,6.8,-9.4,48,29.95,2.5,West,20.7,27.6,N/A,,Haze,280,2013-01-22 17:15:00
12:35 PM,8.6,-7.6,48,29.95,10.0,West,17.3,24.2,N/A,,Clear,280,2013-01-22 17:35:00
12:55 PM,8.6,-7.6,48,29.94,10.0,West,18.4,27.6,N/A,,Clear,280,2013-01-22 17:55:00
1:15 PM,8.6,-7.6,48,29.93,2.5,West,20.7,31.1,N/A,,Haze,270,2013-01-22 18:15:00
1:35 PM,8.6,-7.6,48,29.93,0.5,West,17.3,27.6,N/A,,Haze,280,2013-01-22 18:35:00
1:55 PM,10.4,-7.6,44,29.93,1.5,West,20.7,26.5,N/A,,Haze,280,2013-01-22 18:55:00
2:15 PM,10.4,-7.6,44,29.93,10.0,WNW,17.3,23.0,N/A,,Clear,290,2013-01-22 19:15:00
2:35 PM,10.4,-7.6,44,29.94,2.5,West,15.0,25.3,N/A,,Haze,270,2013-01-22 19:35:00
2:55 PM,10.4,-5.8,48,29.94,10.0,West,19.6,26.5,N/A,,Clear,280,2013-01-22 19:55:00
3:15 PM,10.4,-7.6,44,29.95,10.0,West,19.6,29.9,N/A,,Clear,280,2013-01-22 20:15:00
3:35 PM,10.4,-7.6,44,29.95,10.0,West,17.3,26.5,N/A,,Clear,270,2013-01-22 20:35:00
3:55 PM,8.6,-7.6,48,29.95,10.0,West,16.1,28.8,N/A,,Clear,280,2013-01-22 20:55:00
4:15 PM,10.4,-7.6,44,29.95,10.0,West,17.3,24.2,N/A,,Clear,280,2013-01-22 21:15:00
4:35 PM,8.6,-7.6,48,29.96,10.0,West,15.0,23.0,N/A,,Clear,280,2013-01-22 21:35:00
4:55 PM,8.6,-7.6,48,29.96,10.0,West,17.3,25.3,N/A,,Clear,280,2013-01-22 21:55:00
5:15 PM,8.6,-7.6,48,29.97,10.0,West,15.0,24.2,N/A,,Clear,280,2013-01-22 22:15:00
5:35 PM,6.8,-7.6,52,29.98,10.0,West,12.7,23.0,N/A,,Clear,270,2013-01-22 22:35:00
5:55 PM,6.8,-7.6,52,29.98,10.0,West,15.0,23.0,N/A,,Clear,280,2013-01-22 22:55:00
6:15 PM,6.8,-7.6,52,29.99,10.0,West,13.8,24.2,N/A,,Clear,270,2013-01-22 23:15:00
6:35 PM,6.8,-7.6,52,29.99,10.0,West,15.0,21.9,N/A,,Clear,280,2013-01-22 23:35:00
6:55 PM,6.8,-7.6,52,29.99,10.0,West,16.1,23.0,N/A,,Clear,280,2013-01-22 23:55:00
7:15 PM,6.8,-7.6,52,29.99,10.0,West,13.8,19.6,N/A,,Clear,280,2013-01-23 00:15:00
7:35 PM,6.8,-7.6,52,29.99,10.0,West,17.3,24.2,N/A,,Clear,280,2013-01-23 00:35:00
7:55 PM,6.8,-7.6,52,29.99,-9999.0,West,19.6,24.2,N/A,,Clear,280,2013-01-23 00:55:00
8:15 PM,5.0,-7.6,56,29.99,-9999.0,West,13.8,21.9,N/A,,Clear,280,2013-01-23 01:15:00
8:35 PM,5.0,-7.6,56,29.99,-9999.0,West,15.0,27.6,N/A,,Clear,280,2013-01-23 01:35:00
8:55 PM,5.0,-5.8,61,29.99,-9999.0,West,15.0,20.7,N/A,,Clear,280,2013-01-23 01:55:00
9:15 PM,5.0,-7.6,56,29.99,-9999.0,WNW,17.3,25.3,N/A,,Clear,290,2013-01-23 02:15:00
9:35 PM,5.0,-5.8,61,29.99,-9999.0,West,24.2,28.8,N/A,,Clear,280,2013-01-23 02:35:00
9:55 PM,5.0,-5.8,61,29.99,-9999.0,West,19.6,34.5,N/A,,Clear,280,2013-01-23 02:55:00
10:15 PM,5.0,-5.8,61,29.99,-9999.0,WNW,19.6,28.8,N/A,,Clear,290,2013-01-23 03:15:00
10:35 PM,5.0,-5.8,61,29.99,-9999.0,WNW,19.6,26.5,N/A,,Clear,290,2013-01-23 03:35:00
10:55 PM,5.0,-5.8,61,29.99,-9999.0,WNW,15.0,25.3,N/A,,Clear,290,2013-01-23 03:55:00
11:15 PM,3.2,-5.8,66,29.99,-9999.0,West,18.4,24.2,N/A,,Clear,280,2013-01-23 04:15:00
11:35 PM,3.2,-5.8,66,29.99,-9999.0,West,18.4,27.6,N/A,,Clear,280,2013-01-23 04:35:00
11:55 PM,3.2,-5.8,66,30.00,-9999.0,West,17.3,25.3,N/A,,Clear,280,2013-01-23 04:55:00